Regional Weather Roundup
Issued by NWS

Home | Current Version | Previous Version | Text Only | Print | Product List | Glossary On
Versions: 1 2 3 4 5 6 7 8 9 10 11 12 13 14 15 16 17 18 19 20 21 22 23 24 25 26 27 28 29 30 31 32 33 34 35 36 37 38 39 40 41 42 43 44 45 46 47 48 49 50
000
ASHW40 PHFO 020730
RWRHI

WEATHER ROUNDUP FOR HAWAII
NATIONAL WEATHER SERVICE HONOLULU HI
900 PM HST MON JUN 01 2015

THIS IS AN AUTOMATED REPORT THAT HAS NOT BEEN QUALITY CONTROLLED.

NOTE..."FAIR" INDICATES FEW OR NO CLOUDS BELOW 12,000 FEET WITH NO
SIGNIFICANT WEATHER AND/OR OBSTRUCTIONS TO VISIBILITY.

* - THESE SITES REPORT LIMITED FIELDS

HIZ001>004-020800-
KAUAI-NIIHAU-

CITY           SKY/WX    TMP DP  RH WIND       PRES   REMARKS
LIHUE APT      PTCLDY    76  66  71 NE10      30.10R
PORT ALLEN*    NOT AVBL
POIPU*           N/A     75 N/A N/A NE8G14      N/A
PRINCEVILLE*     N/A     73 N/A N/A MISG        N/A
KOKOLE POINT*  NOT AVBL
MOLOAA DAIRY*  NOT AVBL
WAIMEA HTS*    NOT AVBL
PUU OPAE*      NOT AVBL
PUU LUA*       NOT AVBL
MAKAHA RIDGE*    N/A     68  63  83 CALM        N/A
$$

HIZ005>011-020800-
OAHU-

CITY           SKY/WX    TMP DP  RH WIND       PRES   REMARKS
HONOLULU       PTCLDY    77  68  73 E8        30.05R
KALAELOA       CLOUDY    76  66  71 NE6       30.06R
KANEOHE MCB    CLOUDY    77  68  73 E9        30.05R
WHEELER FIELD  FAIR      73  65  77 VRB3      30.07R
BELLOWS*         N/A    N/A N/A N/A NE16        N/A
KAHUKU*          N/A    N/A N/A N/A E9          N/A
WHEELER*       NOT AVBL
WAIANAE HARBOR NOT AVBL
DILLINGHAM*      N/A     73  66  78 MISG        N/A
KAHUKU TRN*      N/A     72  66  83 E10G18      N/A
KAWAILOA*        N/A     70  64  83 E12G21      N/A
KII*             N/A     75  68  78 E15         N/A
MAKUA RANGE*     N/A     77  64  65 E10         N/A
OAHU FOREST NW NOT AVBL
SCHOFIELD BRK*   N/A     72  64  78 MISG        N/A
SCHOFIELD S*   NOT AVBL
WAIANAE VLY*   NOT AVBL
KUAOKALA*      NOT AVBL
HONOULIUULI*   NOT AVBL
MOKUOLOE IS*   NOT AVBL
PALEHUA*       NOT AVBL
WAIAWA PHB*    NOT AVBL
$$

HIZ012>013-020800-
MOLOKAI-

CITY           SKY/WX    TMP DP  RH WIND       PRES   REMARKS
MOLOKAI AIRPT  CLEAR     74  66  76 NE14G21   30.06R
KALAUPAPA      NOT AVBL
MAKAPULAPAI*   NOT AVBL
MOLOKAI 1*     NOT AVBL
PUU ALII*        N/A     59  59 100 CALM        N/A
$$

HIZ016-020800-
KAHOOLAWE-

CITY           SKY/WX    TMP DP  RH WIND       PRES   REMARKS
KAHOOLAWE*     NOT AVBL
HAKIOAWA*        N/A     72  69  89 MISG      30.49R
HONOKANAIA*      N/A     76  65  70 NE12G20   30.06R
KANELOA*         N/A     73  68  83 E13G28      N/A
KEALIALALO*      N/A     73  66  78 E12G25    30.06R
LUA MAKIKA*    NOT AVBL
$$

HIZ014>015-020800-
LANAI-

CITY           SKY/WX    TMP DP  RH WIND       PRES   REMARKS
LANAI CITY     FAIR      70  66  87 NE15G25   30.10R
LANAI 1*       NOT AVBL
$$

HIZ017>028-020800-
MAUI-

CITY           SKY/WX    TMP DP  RH WIND       PRES   REMARKS
KAHULUI        PTCLDY    75  68  78 NE16      30.06R
KAPALUA-W MAUI NOT AVBL
HANA AIRPORT   CLOUDY    75  68  78 E3        30.11R
HANA*            N/A     75 N/A N/A E7          N/A
HALEAKALA SUMM   N/A     45  37  76 W8          N/A
MAALAEA BAY*   NOT AVBL
HALEAKALA*     NOT AVBL
KAUPO GAP*     NOT AVBL
KULA 1*          N/A     53  53 100 NE3         N/A
$$

HIZ023>026-020800-
BIG ISLAND OF HAWAII COAST AND LOWER SLOPES-

CITY           SKY/WX    TMP DP  RH WIND       PRES   REMARKS
KAILUA KONA    PTCLDY    80  70  71 SE10      30.01R
HILO           CLOUDY    76  71  85 CALM      30.07R
HONOKAA*       NOT AVBL
KAWAIHAE MWT*    N/A     81 N/A N/A N5          N/A
KAWAIHAE*        N/A     79 N/A N/A NW6G12      N/A
SOUTH POINT*     N/A     72 N/A N/A NE10        N/A
UPOLU AIRPORT*   N/A    N/A N/A N/A E15G21      N/A
KAMUELA*       NOT AVBL
HAKALAU*         N/A     54  54 100 W1          N/A
KALOKO-HONOKO*   N/A     79  70  73 SE5       30.01
PALI 2*          N/A     64  63  94 N12G17      N/A
KEALAKOMO*       N/A     90  81  74 NE9G15      N/A  HX 108
KAUPULEHU*     NOT AVBL
KAPAPALA*        N/A     67  66  97 NW3         N/A
LOWER KAHUKU*    N/A     63  63 100 VRB2G12     N/A
PUHE CS*         N/A     79  72  78 NW3G10      N/A
PUHO CS*         N/A     75  68  79 E2          N/A
PTA KEAMUKU*     N/A     64  59  82 CALM        N/A
WAIKOLOA*      NOT AVBL
$$

HIZ027>028-020800-
BIG ISLAND OF HAWAII INTERIOR AND SUMMMITS-

CITY           SKY/WX    TMP DP  RH WIND       PRES   REMARKS
BRADSHAW FIELD CLOUDY    57  55  94 SE3       30.37R
MK VISITOR CEN NOT AVBL
MAUNA KEA*       N/A     37   5  25 NW32        N/A  WCI  25
MAUNA LOA*       N/A     48   7  18 MISG        N/A
MAUNA LOA 1*   NOT AVBL
PTA KIPUKA*      N/A     61  61 100 NW2         N/A
PTA RANGE 17*    N/A     59  55  88 SE7         N/A
PTA WEST*        N/A     70  68  94 SW3G9       N/A
NENE CABIN*      N/A     54 N/A N/A E5G10       N/A
AHUMOA*        NOT AVBL
PTA PORTABLE*  NOT AVBL
PUU MALI*        N/A     55  54  94 E9          N/A
$$

HIC003-020800-
NORTHWEST ISLANDS-

CITY           SKY/WX    TMP DP  RH WIND       PRES   REMARKS
MIDWAY ISLAND  CLEAR    N/A N/A N/A CALM      30.11R
MIDWAY NOS*    NOT AVBL
FRENCH FRIGATE NOT AVBL
$$

PHZ110>124-180-020800-
BUOY REPORTS

STATION/POSITION TIME  TEMP    WIND        PRES    WAVE   SWELL
                       AIR SEA DIR/SP/G            HT/PER HT/DIR
                 (UTC) (F)     (DEG/KT/KT) (MB)    (FT/S) (FT/D)
BUOY 51001       NOT AVBL
BUOY 51101       0700   75 75   80/ 17/ 19 1017.6R   6/17   5/150
BUOY 51100       NOT AVBL
BUOY 51002       0700   80 81   60/ 12/ 14 1015.9R   6/16   5/180
BUOY 51003       0700   79 80   80/ 10/ 12 1016.9R   6/16   7
BUOY 51004       0629   79 80   50/ 14/ 17 1015.9R   7/16   7/180
BARBERS PT BUOY  NOT AVBL
WAIMEA BAY BUOY  0700      76                N/A     3/11
KAILUA BAY BUOY  0700      78                N/A     5/ 6   2/140
LANAI BUOY       NOT AVBL
BARBERS PT 2     0700      78                N/A     5/15   3/180
PAUWELA MAUI     0700      77                N/A     5/ 6   2/350
HILO             0700      78                N/A     5/ 7   2/ 70
KANEOHE BAY BUOY 0700      77                N/A     5/ 6   2/ 80
HANALEI KAUAI    0700      78                N/A     5/ 6   2/310
KAHULUI HARBOR   0700   76 79   40/ 12/ 14 1017.9R
HONOLULU HARBOR  0700   77 78   70/  3/ 11 1017.8R
KILO NALU        NOT AVBL
HILO HARBOR      0700   76 77   40/  5/  6 1017.9R
MOKUOLOE         0600      79              1017.5R
NAWILIWILI       0700   76 79   40/  6/  9 1018.7R
WHOTS BUOY       NOT AVBL
BUOY 51028       NOT AVBL
$$

......................KEY........................................
  SKY/WX - SKY CONDITIONS/PRESENT WEATHER
  TMP    - TEMPERATURE IN FAHRENHEIT
  DWPT   - DEWPOINT IN FAHRENHEIT
  RH     - RELATIVE HUMIDITY IN PERCENT
  WIND   - DIRECTION AND SPEED /MPH FOR ISLANDS...KTS FOR BUOYS/
  PRES   - MEAN SEA LEVEL PRESSURE IN INCHES OF HG
  VSB    - VISIBILITY IN MILES
  HX     - HEAT INDEX
  WCI    - WIND CHILL INDEX
  VRB    - VARIABLE WIND DIRECTION
  N/A    - NOT AVAILABLE



USA.gov is the U.S. government's official web portal to all federal, state and local government web resources and services.